Weather History for Bishop, CA

Change the Weather History Date:

Sunday, May 10, 2009

  Actual Average Record
Temperature  
Mean Temperature 72 °F 62 °F  
Max Temperature 89 °F 81 °F 96 °F (1960)
Min Temperature 57 °F 43 °F 25 °F (2010)
Degree Days  
Heating Degree Days 0 5  
Month to date heating degree days 56  
Since 1 July heating degree days 4098  
Cooling Degree Days 8 1  
Month to date cooling degree days 8  
Year to date cooling degree days 12  
Growing Degree Days 22 (Base 50)    
Moisture  
Dew Point 25 °F    
Average Humidity 19    
Maximum Humidity 37    
Minimum Humidity 8    
Precipitation  
Precipitation 0.00 in 0.00 in 0.10 in (1990)
Month to date precipitation 0.05  
Year to date precipitation 2.74  
Snow  
Snow 0.00 in 0.00 in T in (1980)
Month to date snowfall 0.0  
Since 1 July snowfall 6.8  
Snow Depth -    
Sea Level Pressure  
Sea Level Pressure 29.82 in    
Wind  
Wind Speed 7 mph (NW)    
Max Wind Speed 12 mph    
Max Gust Speed -    
Visibility 10 miles    
Events      
T = Trace of Precipitation, MM = Missing Value Source: NWS Daily Summary

Daily Weather History Graph

Daily Weather History Graph

Search for Another Location

Airport:

Trip Planner

Search our weather history database for the weather conditions in past years. The results will help you decide how hot, cold, wet, or windy it might be!

Date:

Astronomy

May. 10, 2009 Rise Set
Actual Time 5:48 AM PDT 7:51 PM PDT
Civil Twilight 5:19 AM PDT 8:20 PM PDT
Nautical Twilight 4:44 AM PDT 8:55 PM PDT
Astronomical Twilight 4:06 AM PDT 9:33 PM PDT
Moon 9:53 PM PDT (5/10) 6:26 AM PDT (5/10)
Length of Visible Light 15h 00m
Length of Day
14h 02m
Full, 97% of the Moon is Illuminated
May 10
Full
May 17
Last Quarter
May 24
New
May 30
First Quarter
Jun 7
Full

Hourly Weather History & Observations

Time (PDT) Temp. Dew Point Humidity Pressure Visibility Wind Dir Wind Speed Gust Speed Precip Events Conditions
12:56 AM 64.9 °F 23.0 °F 20% 29.83 in 10.0 mi NW 11.5 mph - N/A   Clear
1:56 AM 60.1 °F 23.0 °F 24% 29.85 in 10.0 mi North 3.5 mph - N/A   Clear
2:56 AM 61.0 °F 21.0 °F 21% 29.84 in 10.0 mi NNW 9.2 mph - N/A   Clear
3:56 AM 59.0 °F 21.0 °F 23% 29.85 in 10.0 mi NNW 9.2 mph - N/A   Clear
4:56 AM 60.1 °F 23.0 °F 24% 29.87 in 10.0 mi North 10.4 mph - N/A   Clear
5:56 AM 57.9 °F 23.0 °F 26% 29.88 in 10.0 mi North 11.5 mph - N/A   Clear
6:56 AM 60.1 °F 25.0 °F 26% 29.91 in 10.0 mi NW 6.9 mph - N/A   Clear
7:56 AM 66.0 °F 26.1 °F 22% 29.91 in 10.0 mi WNW 8.1 mph - N/A   Clear
8:56 AM 72.0 °F 25.0 °F 17% 29.91 in 10.0 mi North 9.2 mph - N/A   Clear
9:56 AM 73.9 °F 25.0 °F 16% 29.90 in 10.0 mi Calm Calm - N/A   Clear
10:56 AM 77.0 °F 23.0 °F 13% 29.89 in 10.0 mi Calm Calm - N/A   Clear
11:56 AM 79.0 °F 21.9 °F 12% 29.87 in 10.0 mi Calm Calm - N/A   Clear
12:56 PM 82.0 °F 23.0 °F 11% 29.82 in 10.0 mi Variable 3.5 mph - N/A   Clear
1:56 PM 84.0 °F 21.9 °F 10% 29.80 in 10.0 mi Calm Calm - N/A   Clear
2:56 PM 84.9 °F 21.0 °F 10% 29.77 in 10.0 mi Calm Calm - N/A   Clear
3:56 PM 88.0 °F 19.9 °F 8% 29.74 in 10.0 mi SSW 5.8 mph - N/A   Clear
4:56 PM 88.0 °F 19.9 °F 8% 29.73 in 10.0 mi South 4.6 mph - N/A   Clear
5:56 PM 86.0 °F 21.0 °F 9% 29.73 in 10.0 mi SSW 5.8 mph - N/A   Clear
6:56 PM 84.9 °F 25.0 °F 11% 29.72 in 10.0 mi SSW 5.8 mph - N/A   Clear
7:56 PM 79.0 °F 30.9 °F 17% 29.73 in 10.0 mi Variable 3.5 mph - N/A   Clear
8:56 PM 73.9 °F 35.1 °F 24% 29.76 in 10.0 mi North 10.4 mph - N/A   Clear
9:56 PM 70.0 °F 39.0 °F 32% 29.78 in 10.0 mi North 8.1 mph - N/A   Clear
10:56 PM 66.9 °F 37.0 °F 33% 29.79 in 10.0 mi NW 3.5 mph - N/A   Clear
11:56 PM 63.0 °F 36.0 °F 37% 29.80 in 10.0 mi North 4.6 mph - N/A   Clear